When you browse on this site, cookies collect data to enhance your experience and personalize the content and advertising you see.
Visit our Privacy Policy to learn more. By continuing to use the site, you agree to this use of cookies and data.
  • En España
  • Lista de países
  • Para 7 días
  • Temperatura del agua
  • El tiempo en el mapa
  • Informadores
  • user-avatar
    Iniciar sesión

    Tiempo cada hora Parral

    Hoy, 26 Enero, Domingo

    Tiempo Temperatura Precipitaciones Viento Presión Humedad
    00:00 +19°C° 0 mm 4 mps 746 mmHg 62%
    01:00 +18°C° 0 mm 3 mps 746 mmHg 75%
    02:00 +17°C° 0 mm 3 mps 746 mmHg 80%
    03:00 +16°C° 0 mm 2 mps 746 mmHg 84%
    04:00 +15°C° 0 mm 2 mps 746 mmHg 89%
    05:00 +17°C° 0 mm 2 mps 746 mmHg 83%
    06:00 +18°C° 0 mm 2 mps 746 mmHg 76%
    07:00 +20°C° 0 mm 2 mps 747 mmHg 70%
    08:00 +24°C° 0 mm 2 mps 747 mmHg 58%
    09:00 +28°C° 0 mm 2 mps 747 mmHg 47%
    10:00 +31°C° 0 mm 2 mps 747 mmHg 35%
    11:00 +34°C° 0 mm 3 mps 747 mmHg 31%
    12:00 +36°C° 0 mm 3 mps 747 mmHg 27%
    13:00 +38°C° 0 mm 4 mps 746 mmHg 22%
    14:00 +39°C° 0 mm 5 mps 746 mmHg 22%
    15:00 +39°C° 0 mm 5 mps 746 mmHg 21%
    16:00 +40°C° 0 mm 6 mps 746 mmHg 20%
    17:00 +36°C° 0 mm 5 mps 746 mmHg 23%
    18:00 +34°C° 0 mm 5 mps 746 mmHg 27%
    19:00 +32°C° 0 mm 5 mps 746 mmHg 30%
    20:00 +28°C° 0 mm 4 mps 746 mmHg 32%
    21:00 +26°C° 0 mm 4 mps 746 mmHg 34%
    22:00 +23°C° 0 mm 4 mps 746 mmHg 37%
    23:00 +22°C° 0 mm 4 mps 746 mmHg 41%

    Mañana, 27 Enero, Lunes

    Tiempo Temperatura Precipitaciones Viento Presión Humedad
    00:00 +21°C° 0 mm 4 mps 746 mmHg 44%
    01:00 +19°C° 0 mm 4 mps 745 mmHg 48%
    02:00 +18°C° 0 mm 4 mps 745 mmHg 51%
    03:00 +17°C° 0 mm 3 mps 744 mmHg 54%
    04:00 +14°C° 0 mm 3 mps 744 mmHg 58%
    05:00 +17°C° 0 mm 3 mps 744 mmHg 53%
    06:00 +19°C° 0 mm 3 mps 744 mmHg 48%
    07:00 +20°C° 0 mm 3 mps 744 mmHg 43%
    08:00 +25°C° 0 mm 4 mps 744 mmHg 35%
    09:00 +29°C° 0 mm 4 mps 744 mmHg 26%
    10:00 +34°C° 0 mm 4 mps 744 mmHg 17%
    11:00 +36°C° 0 mm 5 mps 744 mmHg 15%
    12:00 +39°C° 0 mm 5 mps 744 mmHg 13%
    13:00 +41°C° 0 mm 5 mps 744 mmHg 11%
    14:00 +41°C° 0 mm 5 mps 743 mmHg 11%
    15:00 +41°C° 0 mm 5 mps 743 mmHg 10%
    16:00 +41°C° 0 mm 6 mps 743 mmHg 10%
    17:00 +37°C° 0 mm 5 mps 743 mmHg 13%
    18:00 +34°C° 0 mm 5 mps 743 mmHg 16%
    19:00 +30°C° 0 mm 4 mps 744 mmHg 20%
    20:00 +28°C° 0 mm 4 mps 744 mmHg 22%
    21:00 +25°C° 0 mm 4 mps 744 mmHg 25%
    22:00 +22°C° 0 mm 4 mps 744 mmHg 27%
    23:00 +20°C° 0 mm 4 mps 744 mmHg 33%

    Pasado mañana, 28 Enero, Martes

    Tiempo Temperatura Precipitaciones Viento Presión Humedad
    00:00 +19°C° 0 mm 3 mps 743 mmHg 39%
    01:00 +17°C° 0 mm 3 mps 743 mmHg 45%
    02:00 +16°C° 0 mm 2 mps 743 mmHg 54%
    03:00 +15°C° 0 mm 2 mps 743 mmHg 63%
    04:00 +14°C° 0 mm 2 mps 743 mmHg 72%
    05:00 +15°C° 0 mm 2 mps 743 mmHg 67%
    06:00 +17°C° 0 mm 2 mps 743 mmHg 61%
    07:00 +19°C° 0 mm 2 mps 743 mmHg 55%
    08:00 +22°C° 0 mm 3 mps 743 mmHg 46%
    09:00 +27°C° 0 mm 3 mps 743 mmHg 38%
    10:00 +30°C° 0 mm 3 mps 743 mmHg 29%
    11:00 +33°C° 0 mm 4 mps 743 mmHg 28%
    12:00 +34°C° 0 mm 4 mps 743 mmHg 26%
    13:00 +36°C° 0 mm 4 mps 743 mmHg 25%
    14:00 +34°C° 0 mm 5 mps 743 mmHg 31%
    15:00 +32°C° 0 mm 6 mps 743 mmHg 37%
    16:00 +29°C° 0 mm 7 mps 743 mmHg 42%
    17:00 +28°C° 0 mm 6 mps 744 mmHg 47%
    18:00 +26°C° 0 mm 5 mps 744 mmHg 51%
    19:00 +23°C° 0 mm 4 mps 744 mmHg 56%
    20:00 +21°C° 0 mm 4 mps 744 mmHg 61%
    21:00 +18°C° 0 mm 3 mps 745 mmHg 67%
    22:00 +16°C° 0 mm 3 mps 745 mmHg 73%
    23:00 +14°C° 0 mm 3 mps 745 mmHg 72%

    29 Enero, Miércoles

    Tiempo Temperatura Precipitaciones Viento Presión Humedad
    00:00 +13°C° 0 mm 3 mps 745 mmHg 71%
    01:00 +11°C° 0 mm 4 mps 745 mmHg 70%
    02:00 +10°C° 0 mm 3 mps 744 mmHg 75%
    03:00 +9°C° 0 mm 3 mps 744 mmHg 80%
    04:00 +8°C° 0 mm 3 mps 744 mmHg 85%
    05:00 +10°C° 0 mm 3 mps 745 mmHg 77%
    06:00 +11°C° 0 mm 3 mps 745 mmHg 70%
    07:00 +13°C° 0 mm 4 mps 745 mmHg 63%
    08:00 +17°C° 0 mm 4 mps 745 mmHg 51%
    09:00 +21°C° 0 mm 4 mps 745 mmHg 39%
    10:00 +26°C° 0 mm 4 mps 745 mmHg 28%
    11:00 +28°C° 0 mm 4 mps 745 mmHg 22%
    12:00 +30°C° 0 mm 4 mps 745 mmHg 17%
    13:00 +34°C° 0 mm 4 mps 745 mmHg 11%
    14:00 +34°C° 0 mm 4 mps 745 mmHg 10%
    15:00 +34°C° 0 mm 4 mps 745 mmHg 8%
    16:00 +35°C° 0 mm 4 mps 744 mmHg 6%
    17:00 +32°C° 0 mm 4 mps 745 mmHg 10%
    18:00 +28°C° 0 mm 4 mps 745 mmHg 15%
    19:00 +25°C° 0 mm 4 mps 745 mmHg 19%
    20:00 +21°C° 0 mm 4 mps 745 mmHg 24%
    21:00 +18°C° 0 mm 3 mps 746 mmHg 29%
    22:00 +16°C° 0 mm 3 mps 746 mmHg 34%
    23:00 +14°C° 0 mm 3 mps 745 mmHg 40%

    30 Enero, Jueves

    Tiempo Temperatura Precipitaciones Viento Presión Humedad
    00:00 +12°C° 0 mm 3 mps 745 mmHg 45%
    01:00 +11°C° 0 mm 3 mps 745 mmHg 51%
    02:00 +10°C° 0 mm 2 mps 744 mmHg 58%
    03:00 +9°C° 0 mm 2 mps 744 mmHg 64%
    04:00 +8°C° 0 mm 2 mps 744 mmHg 71%
    05:00 +10°C° 0 mm 2 mps 744 mmHg 63%
    06:00 +13°C° 0 mm 2 mps 744 mmHg 54%
    07:00 +15°C° 0 mm 2 mps 745 mmHg 46%
    08:00 +19°C° 0 mm 3 mps 745 mmHg 35%
    09:00 +25°C° 0 mm 3 mps 745 mmHg 24%
    10:00 +29°C° 0 mm 3 mps 745 mmHg 13%
    11:00 +33°C° 0 mm 3 mps 744 mmHg 11%
    12:00 +35°C° 0 mm 3 mps 744 mmHg 9%
    13:00 +37°C° 0 mm 3 mps 744 mmHg 7%
    14:00 +38°C° 0 mm 3 mps 744 mmHg 6%
    15:00 +38°C° 0 mm 3 mps 744 mmHg 5%
    16:00 +38°C° 0 mm 4 mps 744 mmHg 4%
    17:00 +35°C° 0 mm 4 mps 744 mmHg 8%
    18:00 +30°C° 0 mm 4 mps 744 mmHg 12%
    19:00 +27°C° 0 mm 4 mps 744 mmHg 16%
    20:00 +24°C° 0 mm 3 mps 745 mmHg 22%
    21:00 +20°C° 0 mm 2 mps 745 mmHg 28%
    22:00 +18°C° 0 mm 1 mps 745 mmHg 33%
    23:00 +16°C° 0 mm 1 mps 744 mmHg 40%

    31 Enero, Viernes

    Tiempo Temperatura Precipitaciones Viento Presión Humedad
    00:00 +15°C° 0 mm 1 mps 744 mmHg 46%
    01:00 +14°C° 0 mm 1 mps 744 mmHg 52%
    02:00 +13°C° 0 mm 1 mps 744 mmHg 56%
    03:00 +12°C° 0 mm 1 mps 744 mmHg 61%
    04:00 +11°C° 0 mm 1 mps 744 mmHg 65%
    05:00 +14°C° 0 mm 1 mps 744 mmHg 59%
    06:00 +16°C° 0 mm 1 mps 744 mmHg 53%
    07:00 +19°C° 0 mm 1 mps 744 mmHg 46%
    08:00 +23°C° 0 mm 2 mps 745 mmHg 37%
    09:00 +27°C° 0 mm 2 mps 745 mmHg 27%
    10:00 +31°C° 0 mm 2 mps 745 mmHg 18%
    11:00 +34°C° 0 mm 2 mps 744 mmHg 15%
    12:00 +37°C° 0 mm 2 mps 744 mmHg 13%
    13:00 +39°C° 0 mm 3 mps 744 mmHg 10%
    14:00 +39°C° 0 mm 3 mps 744 mmHg 10%
    15:00 +40°C° 0 mm 4 mps 744 mmHg 10%
    16:00 +41°C° 0 mm 4 mps 744 mmHg 11%
    17:00 +36°C° 0 mm 4 mps 744 mmHg 19%
    18:00 +31°C° 0 mm 3 mps 744 mmHg 27%
    19:00 +27°C° 0 mm 3 mps 744 mmHg 35%
    20:00 +24°C° 0 mm 2 mps 744 mmHg 43%
    21:00 +22°C° 0 mm 1 mps 744 mmHg 52%
    22:00 +19°C° 0 mm 1 mps 744 mmHg 61%
    23:00 +18°C° 0 mm 1 mps 744 mmHg 64%
    Mostrar más